Location: Unspecified
(40.8819°N, 0.0000°E)
Time: 08:52:59
(UTC+00:00)

BUGSAT 1 - Pass Details

Date: 28 April 2024
Orbit: 531 x 580 km, 98.1° (Epoch: 25 May)

Event Time Altitude Azimuth Distance (km) Brightness Sun altitude
Rises 19:58:53 0° 182° (S) 2,713 ? -11.9°
Reaches altitude 10° 20:01:04 10° 189° (S) 1,833 ? -12.2°
Maximum altitude 20:04:50 42° 261° (W) 807 ? -12.9°
Drops below altitude 10° 20:08:42 10° 333° (NNW) 1,876 ? -13.5°
Sets 20:10:58 0° 340° (NNW) 2,786 ? -13.8°
